ANG291 AYMO-AYPY

Flight info

Callsign ANG291
Flight time 1h 17m
Altitude 37000
Route TEKEE H780 AVLIX H787 SAKTO SAKTO1
Aircraft B738/M-SDE2E3FGHIRWXY/LB1

Departure

Time 2026-04-22 21:31
Airport Momote Airport (AYMO)

Arrival

Time 2026-04-22 22:48
Airport Port Moresby Jacksons International Airport (AYPY)
Time Latitude Longitude Altitude Speed Heading
2026-04-22 21:13 -2.06320 147.42285 26 ft 0 kts 294°
2026-04-22 21:26 -2.06314 147.42282 26 ft 1 kts 21°
2026-04-22 21:26 -2.06314 147.42299 26 ft 4 kts 94°
2026-04-22 21:26 -2.06307 147.42349 24 ft 9 kts 74°
2026-04-22 21:26 -2.06282 147.42421 23 ft 11 kts 47°
2026-04-22 21:27 -2.06205 147.42419 23 ft 12 kts 339°
2026-04-22 21:27 -2.06115 147.42387 23 ft 14 kts 340°
2026-04-22 21:27 -2.06011 147.42351 22 ft 16 kts 340°
2026-04-22 21:27 -2.05894 147.42310 20 ft 18 kts 341°
2026-04-22 21:28 -2.05762 147.42265 19 ft 21 kts 341°
2026-04-22 21:28 -2.05629 147.42218 18 ft 18 kts 340°
2026-04-22 21:28 -2.05521 147.42178 18 ft 13 kts 340°
2026-04-22 21:28 -2.05468 147.42160 18 ft 4 kts 340°
2026-04-22 21:29 -2.05437 147.42140 18 ft 5 kts 320°
2026-04-22 21:29 -2.05409 147.42136 18 ft 3 kts 45°
2026-04-22 21:29 -2.05420 147.42151 18 ft 3 kts 172°
2026-04-22 21:29 -2.05440 147.42156 18 ft 0 kts 162°
2026-04-22 21:30 -2.05544 147.42189 18 ft 50 kts 161°
2026-04-22 21:30 -2.06134 147.42395 23 ft 125 kts 161°
2026-04-22 21:31 -2.07161 147.42760 120 ft 175 kts 159°
2026-04-22 21:31 -2.08282 147.43193 838 ft 177 kts 162°
2026-04-22 21:31 -2.09552 147.43254 1464 ft 189 kts 189°
2026-04-22 21:31 -2.10814 147.43094 2274 ft 181 kts 187°
2026-04-22 21:32 -2.12087 147.43041 2780 ft 190 kts 175°
2026-04-22 21:32 -2.13436 147.43233 3215 ft 203 kts 171°
2026-04-22 21:32 -2.14902 147.43440 3594 ft 221 kts 173°
2026-04-22 21:32 -2.16470 147.43607 4074 ft 235 kts 175°
2026-04-22 21:33 -2.18155 147.43762 4523 ft 251 kts 175°
2026-04-22 21:33 -2.19938 147.43922 5091 ft 262 kts 175°
2026-04-22 21:33 -2.21810 147.44093 5562 ft 275 kts 175°
2026-04-22 21:33 -2.23758 147.44275 6205 ft 281 kts 175°
2026-04-22 21:34 -2.25694 147.44457 6859 ft 284 kts 175°
2026-04-22 21:34 -2.27679 147.44641 7523 ft 288 kts 175°
2026-04-22 21:34 -2.29672 147.44829 8191 ft 291 kts 175°
2026-04-22 21:34 -2.31723 147.45021 8854 ft 294 kts 174°
2026-04-22 21:35 -2.33752 147.45210 9484 ft 298 kts 174°
2026-04-22 21:35 -2.35839 147.45406 10110 ft 301 kts 174°
2026-04-22 21:35 -2.37947 147.45601 10530 ft 313 kts 174°
2026-04-22 21:35 -2.40178 147.45808 10866 ft 327 kts 174°
2026-04-22 21:36 -2.42525 147.46027 11176 ft 343 kts 174°
2026-04-22 21:36 -2.44965 147.46256 11489 ft 358 kts 174°
2026-04-22 21:36 -2.47461 147.46489 12032 ft 364 kts 174°
2026-04-22 21:36 -2.50027 147.46729 12654 ft 368 kts 174°
2026-04-22 21:37 -2.53442 147.47047 13501 ft 372 kts 174°
2026-04-22 21:37 -2.55168 147.47208 13928 ft 374 kts 174°
2026-04-22 21:37 -2.57746 147.47449 14531 ft 378 kts 174°
2026-04-22 21:37 -2.60398 147.47697 15140 ft 382 kts 174°
2026-04-22 21:38 -2.63077 147.47949 15740 ft 385 kts 174°
2026-04-22 21:38 -2.65736 147.48198 16316 ft 389 kts 174°
2026-04-22 21:38 -2.68469 147.48453 16894 ft 393 kts 174°
2026-04-22 21:38 -2.71193 147.48706 17454 ft 396 kts 174°
2026-04-22 21:39 -2.73938 147.48962 17998 ft 400 kts 174°
2026-04-22 21:39 -2.76724 147.49222 18533 ft 403 kts 175°
2026-04-22 21:39 -2.79549 147.49484 19036 ft 407 kts 175°
2026-04-22 21:39 -2.82392 147.49750 19530 ft 411 kts 175°
2026-04-22 21:40 -2.85266 147.50018 20015 ft 415 kts 175°
2026-04-22 21:40 -2.88146 147.50287 20486 ft 419 kts 175°
2026-04-22 21:40 -2.91066 147.50560 20949 ft 422 kts 174°
2026-04-22 21:40 -2.94024 147.50835 21407 ft 425 kts 174°
2026-04-22 21:41 -2.96975 147.51111 21850 ft 429 kts 174°
2026-04-22 21:41 -2.99978 147.51392 22287 ft 432 kts 174°
2026-04-22 21:41 -3.02974 147.51671 22707 ft 435 kts 173°
2026-04-22 21:41 -3.06022 147.51956 23122 ft 438 kts 173°
2026-04-22 21:42 -3.09054 147.52240 23532 ft 442 kts 173°
2026-04-22 21:42 -3.12153 147.52530 23946 ft 445 kts 173°
2026-04-22 21:42 -3.15247 147.52820 24385 ft 447 kts 173°
2026-04-22 21:42 -3.18338 147.53110 24814 ft 450 kts 173°
2026-04-22 21:43 -3.21500 147.53406 25245 ft 453 kts 173°
2026-04-22 21:43 -3.24625 147.53697 25660 ft 456 kts 173°
2026-04-22 21:43 -3.27788 147.53993 26065 ft 459 kts 173°
2026-04-22 21:43 -3.31011 147.54295 26469 ft 462 kts 173°
2026-04-22 21:44 -3.34241 147.54597 26862 ft 464 kts 173°
2026-04-22 21:44 -3.37433 147.54895 27250 ft 467 kts 173°
2026-04-22 21:44 -3.40687 147.55200 27634 ft 470 kts 173°
2026-04-22 21:44 -3.43975 147.55507 28034 ft 473 kts 173°
2026-04-22 21:45 -3.47290 147.55817 28430 ft 476 kts 173°
2026-04-22 21:45 -3.50593 147.56126 28819 ft 478 kts 173°
2026-04-22 21:45 -3.53930 147.56438 29202 ft 481 kts 173°
2026-04-22 21:45 -3.57247 147.56747 29591 ft 483 kts 173°
2026-04-22 21:46 -3.60616 147.57063 30077 ft 482 kts 173°
2026-04-22 21:46 -3.63941 147.57373 30655 ft 478 kts 173°
2026-04-22 21:46 -3.67256 147.57683 31212 ft 476 kts 173°
2026-04-22 21:46 -3.70547 147.57991 31748 ft 473 kts 173°
2026-04-22 21:47 -3.73831 147.58298 32282 ft 471 kts 173°
2026-04-22 21:47 -3.77094 147.58603 32808 ft 468 kts 173°
2026-04-22 21:47 -3.80301 147.58902 33340 ft 465 kts 173°
2026-04-22 21:47 -3.83518 147.59204 33870 ft 463 kts 173°
2026-04-22 21:48 -3.86733 147.59505 34391 ft 460 kts 173°
2026-04-22 21:48 -3.89921 147.59802 34901 ft 457 kts 173°
2026-04-22 21:48 -3.93135 147.60104 35327 ft 457 kts 173°
2026-04-22 21:48 -3.96309 147.60402 35751 ft 456 kts 173°
2026-04-22 21:49 -3.99473 147.60700 36161 ft 456 kts 173°
2026-04-22 21:49 -4.02603 147.60992 36553 ft 455 kts 173°
2026-04-22 21:49 -4.05774 147.61290 36905 ft 455 kts 173°
2026-04-22 21:49 -4.08944 147.61587 37180 ft 456 kts 173°
2026-04-22 21:50 -4.15295 147.62183 37202 ft 454 kts 173°
2026-04-22 21:50 -4.21521 147.62766 37166 ft 449 kts 173°
2026-04-22 21:51 -4.27798 147.63353 37157 ft 453 kts 173°
2026-04-22 21:52 -4.37206 147.64235 37134 ft 450 kts 173°
2026-04-22 21:52 -4.43474 147.64824 37147 ft 452 kts 173°
2026-04-22 21:53 -4.49769 147.65414 37149 ft 452 kts 173°
2026-04-22 21:53 -4.56052 147.66005 37146 ft 451 kts 173°
2026-04-22 21:54 -4.62282 147.66588 37147 ft 450 kts 173°
2026-04-22 21:54 -4.68532 147.67175 37147 ft 450 kts 173°
2026-04-22 21:55 -4.74795 147.67763 37147 ft 449 kts 173°
2026-04-22 21:55 -4.81024 147.68347 37148 ft 449 kts 173°
2026-04-22 21:56 -4.87270 147.68935 37150 ft 448 kts 173°
2026-04-22 21:56 -4.93496 147.69519 37153 ft 449 kts 173°
2026-04-22 21:57 -4.99752 147.70108 37151 ft 448 kts 173°
2026-04-22 21:57 -5.05997 147.70694 37149 ft 448 kts 173°
2026-04-22 21:58 -5.12200 147.71277 37145 ft 447 kts 173°
2026-04-22 21:58 -5.18419 147.71861 37142 ft 449 kts 173°
2026-04-22 21:59 -5.24619 147.72444 37140 ft 446 kts 173°
2026-04-22 21:59 -5.30849 147.73030 37143 ft 446 kts 173°
2026-04-22 22:00 -5.37055 147.73614 37146 ft 446 kts 173°
2026-04-22 22:00 -5.43240 147.74194 37149 ft 446 kts 173°
2026-04-22 22:01 -5.49449 147.74779 37152 ft 447 kts 174°
2026-04-22 22:01 -5.55628 147.75362 37150 ft 445 kts 174°
2026-04-22 22:02 -5.61859 147.75949 37146 ft 447 kts 174°
2026-04-22 22:02 -5.68034 147.76543 37140 ft 445 kts 173°
2026-04-22 22:03 -5.74238 147.77156 37136 ft 445 kts 173°
2026-04-22 22:03 -5.80408 147.77768 37134 ft 445 kts 173°
2026-04-22 22:04 -5.86590 147.78381 37134 ft 445 kts 173°
2026-04-22 22:04 -5.92769 147.78993 37132 ft 446 kts 173°
2026-04-22 22:05 -5.98961 147.79605 37131 ft 447 kts 173°
2026-04-22 22:05 -6.05169 147.80219 37129 ft 444 kts 173°
2026-04-22 22:06 -6.11336 147.80827 37129 ft 445 kts 173°
2026-04-22 22:06 -6.17531 147.81439 37127 ft 445 kts 173°
2026-04-22 22:07 -6.23713 147.82051 37126 ft 445 kts 173°
2026-04-22 22:07 -6.29934 147.82666 37133 ft 449 kts 173°
2026-04-22 22:08 -6.36154 147.83281 37147 ft 447 kts 173°
2026-04-22 22:08 -6.42330 147.83891 37163 ft 445 kts 173°
2026-04-22 22:09 -6.48529 147.84505 37177 ft 446 kts 173°
2026-04-22 22:09 -6.54697 147.85115 37174 ft 445 kts 174°
2026-04-22 22:10 -6.60916 147.85167 37154 ft 445 kts 188°
2026-04-22 22:10 -6.63949 147.84381 37149 ft 447 kts 200°
2026-04-22 22:10 -6.66813 147.83139 37141 ft 448 kts 205°
2026-04-22 22:11 -6.72358 147.80276 37125 ft 447 kts 207°
2026-04-22 22:11 -6.77850 147.77281 37115 ft 447 kts 208°
2026-04-22 22:12 -6.83337 147.74297 37114 ft 447 kts 207°
2026-04-22 22:12 -6.88843 147.71330 37115 ft 449 kts 207°
2026-04-22 22:13 -6.94332 147.68394 37117 ft 449 kts 207°
2026-04-22 22:13 -6.99611 147.65581 37117 ft 446 kts 207°
2026-04-22 22:14 -7.05099 147.62659 37117 ft 447 kts 207°
2026-04-22 22:14 -7.10607 147.59727 37115 ft 447 kts 207°
2026-04-22 22:15 -7.16104 147.56801 37114 ft 444 kts 207°
2026-04-22 22:15 -7.21579 147.53886 37114 ft 448 kts 207°
2026-04-22 22:16 -7.27081 147.50955 37112 ft 444 kts 207°
2026-04-22 22:16 -7.32560 147.48036 37113 ft 446 kts 207°
2026-04-22 22:17 -7.38052 147.45110 37113 ft 444 kts 208°
2026-04-22 22:17 -7.43541 147.42181 37118 ft 448 kts 208°
2026-04-22 22:18 -7.49069 147.39233 37123 ft 447 kts 208°
2026-04-22 22:18 -7.54540 147.36314 37146 ft 444 kts 208°
2026-04-22 22:19 -7.60018 147.33389 37179 ft 447 kts 208°
2026-04-22 22:19 -7.62776 147.31917 37078 ft 447 kts 208°
2026-04-22 22:19 -7.65526 147.30447 36899 ft 444 kts 208°
2026-04-22 22:19 -7.68254 147.28990 36719 ft 450 kts 208°
2026-04-22 22:20 -7.71052 147.27495 36526 ft 450 kts 208°
2026-04-22 22:20 -7.73826 147.26013 36312 ft 451 kts 208°
2026-04-22 22:20 -7.76602 147.24530 36035 ft 450 kts 208°
2026-04-22 22:20 -7.79335 147.23068 35984 ft 439 kts 208°
2026-04-22 22:21 -7.82033 147.21626 36036 ft 438 kts 208°
2026-04-22 22:21 -7.87488 147.18710 36141 ft 444 kts 208°
2026-04-22 22:22 -7.92994 147.15765 36116 ft 449 kts 208°
2026-04-22 22:22 -7.98490 147.12825 36032 ft 445 kts 208°
2026-04-22 22:23 -8.04014 147.09869 35887 ft 447 kts 208°
2026-04-22 22:23 -8.09511 147.06926 35749 ft 449 kts 208°
2026-04-22 22:24 -8.15064 147.03952 35702 ft 448 kts 208°
2026-04-22 22:24 -8.20582 147.00996 35723 ft 447 kts 208°
2026-04-22 22:25 -8.26073 146.98055 35764 ft 445 kts 208°
2026-04-22 22:25 -8.31544 146.95122 35884 ft 446 kts 208°
2026-04-22 22:26 -8.37059 146.92165 35760 ft 442 kts 208°
2026-04-22 22:26 -8.39746 146.90723 35467 ft 436 kts 208°
2026-04-22 22:26 -8.42422 146.89287 35040 ft 434 kts 208°
2026-04-22 22:26 -8.45083 146.87859 34498 ft 434 kts 208°
2026-04-22 22:27 -8.47730 146.86440 34005 ft 433 kts 208°
2026-04-22 22:27 -8.50399 146.85007 33523 ft 430 kts 208°
2026-04-22 22:27 -8.53089 146.83563 32934 ft 446 kts 208°
2026-04-22 22:27 -8.55882 146.82063 32461 ft 458 kts 208°
2026-04-22 22:28 -8.58686 146.80559 31958 ft 456 kts 208°
2026-04-22 22:28 -8.61495 146.79051 31441 ft 449 kts 208°
2026-04-22 22:28 -8.64242 146.77585 30904 ft 445 kts 207°
2026-04-22 22:28 -8.67018 146.76262 30330 ft 442 kts 202°
2026-04-22 22:29 -8.69960 146.75362 29752 ft 438 kts 190°
2026-04-22 22:29 -8.72971 146.75136 29173 ft 435 kts 178°
2026-04-22 22:29 -8.75966 146.75444 28584 ft 432 kts 171°
2026-04-22 22:29 -8.78958 146.75977 28012 ft 429 kts 169°
2026-04-22 22:30 -8.81872 146.76576 27444 ft 427 kts 168°
2026-04-22 22:30 -8.84743 146.77200 26880 ft 424 kts 167°
2026-04-22 22:30 -8.87650 146.77843 26303 ft 422 kts 167°
2026-04-22 22:30 -8.90515 146.78476 25732 ft 420 kts 167°
2026-04-22 22:31 -8.93364 146.79100 25161 ft 418 kts 168°
2026-04-22 22:31 -8.96195 146.79713 24591 ft 416 kts 168°
2026-04-22 22:31 -8.99026 146.80322 24016 ft 414 kts 168°
2026-04-22 22:31 -9.01821 146.80989 23446 ft 412 kts 164°
2026-04-22 22:32 -9.04543 146.81975 22879 ft 410 kts 156°
2026-04-22 22:32 -9.07046 146.83319 22329 ft 408 kts 149°
2026-04-22 22:32 -9.09448 146.84862 21765 ft 407 kts 147°
2026-04-22 22:32 -9.11754 146.86461 21198 ft 405 kts 145°
2026-04-22 22:33 -9.14057 146.88106 20628 ft 404 kts 145°
2026-04-22 22:33 -9.16349 146.89754 20010 ft 404 kts 145°
2026-04-22 22:33 -9.18652 146.91402 19417 ft 403 kts 145°
2026-04-22 22:33 -9.20940 146.93028 18842 ft 401 kts 146°
2026-04-22 22:34 -9.23237 146.94652 18242 ft 398 kts 146°
2026-04-22 22:34 -9.25459 146.96219 17704 ft 386 kts 146°
2026-04-22 22:34 -9.27658 146.97766 17160 ft 376 kts 146°
2026-04-22 22:34 -9.29772 146.99251 16636 ft 366 kts 146°
2026-04-22 22:35 -9.31828 147.00691 16121 ft 357 kts 146°
2026-04-22 22:35 -9.33834 147.02094 15616 ft 348 kts 146°
2026-04-22 22:35 -9.35820 147.03482 15119 ft 339 kts 146°
2026-04-22 22:35 -9.37731 147.04816 14663 ft 335 kts 146°
2026-04-22 22:36 -9.39673 147.06169 14150 ft 335 kts 146°
2026-04-22 22:36 -9.41573 147.07495 13679 ft 334 kts 146°
2026-04-22 22:36 -9.43492 147.08820 13143 ft 335 kts 147°
2026-04-22 22:36 -9.45458 147.10112 12620 ft 335 kts 148°
2026-04-22 22:37 -9.47419 147.11368 12141 ft 334 kts 148°
2026-04-22 22:37 -9.49394 147.12627 11656 ft 333 kts 148°
2026-04-22 22:37 -9.51347 147.13873 11176 ft 332 kts 148°
2026-04-22 22:37 -9.53295 147.15123 10700 ft 331 kts 148°
2026-04-22 22:38 -9.55240 147.16374 10325 ft 326 kts 148°
2026-04-22 22:38 -9.57119 147.17587 10160 ft 315 kts 148°
2026-04-22 22:38 -9.58948 147.18770 10009 ft 303 kts 147°
2026-04-22 22:38 -9.60717 147.19914 9655 ft 301 kts 147°
2026-04-22 22:39 -9.62482 147.21057 9258 ft 299 kts 147°
2026-04-22 22:39 -9.64214 147.22177 8902 ft 292 kts 147°
2026-04-22 22:39 -9.65901 147.23270 8549 ft 286 kts 147°
2026-04-22 22:39 -9.67559 147.24341 8204 ft 280 kts 147°
2026-04-22 22:40 -9.69190 147.25404 7873 ft 274 kts 147°
2026-04-22 22:40 -9.70807 147.26442 7519 ft 272 kts 148°
2026-04-22 22:40 -9.72400 147.27477 7175 ft 271 kts 147°
2026-04-22 22:40 -9.73935 147.28583 6834 ft 270 kts 138°
2026-04-22 22:41 -9.75093 147.30039 6496 ft 267 kts 113°
2026-04-22 22:41 -9.75447 147.31874 6172 ft 264 kts 86°
2026-04-22 22:41 -9.75041 147.33650 5858 ft 261 kts 68°
2026-04-22 22:41 -9.74220 147.35298 5506 ft 261 kts 59°
2026-04-22 22:42 -9.73066 147.36703 5190 ft 260 kts 37°
2026-04-22 22:42 -9.71417 147.37431 4887 ft 259 kts
2026-04-22 22:42 -9.69636 147.37373 4575 ft 258 kts 351°
2026-04-22 22:42 -9.67894 147.36865 4279 ft 256 kts 334°
2026-04-22 22:43 -9.66448 147.35901 4171 ft 246 kts 322°
2026-04-22 22:43 -9.65084 147.34883 4117 ft 236 kts 326°
2026-04-22 22:43 -9.63728 147.34019 4047 ft 224 kts 331°
2026-04-22 22:43 -9.62386 147.33256 3890 ft 217 kts 330°
2026-04-22 22:44 -9.61097 147.32472 3733 ft 212 kts 328°
2026-04-22 22:44 -9.59850 147.31686 3440 ft 211 kts 329°
2026-04-22 22:44 -9.58605 147.30919 3141 ft 203 kts 329°
2026-04-22 22:44 -9.57446 147.30208 2862 ft 190 kts 329°
2026-04-22 22:45 -9.56350 147.29540 2618 ft 177 kts 329°
2026-04-22 22:45 -9.55327 147.28906 2418 ft 168 kts 329°
2026-04-22 22:45 -9.54357 147.28311 2153 ft 159 kts 329°
2026-04-22 22:45 -9.53405 147.27725 1982 ft 161 kts 329°
2026-04-22 22:46 -9.52437 147.27132 1754 ft 160 kts 329°
2026-04-22 22:46 -9.51499 147.26553 1553 ft 160 kts 329°
2026-04-22 22:46 -9.50532 147.25960 1350 ft 160 kts 329°
2026-04-22 22:46 -9.49577 147.25377 1131 ft 159 kts 329°
2026-04-22 22:47 -9.48635 147.24794 917 ft 158 kts 329°
2026-04-22 22:47 -9.47701 147.24229 709 ft 156 kts 330°
2026-04-22 22:47 -9.46773 147.23673 513 ft 153 kts 329°
2026-04-22 22:47 -9.45867 147.23102 309 ft 150 kts 329°
2026-04-22 22:48 -9.44976 147.22557 139 ft 145 kts 329°
2026-04-22 22:48 -9.44185 147.22063 136 ft 115 kts 329°
2026-04-22 22:48 -9.43600 147.21710 136 ft 77 kts 329°
2026-04-22 22:48 -9.43269 147.21506 137 ft 34 kts 325°
2026-04-22 22:49 -9.43139 147.21417 137 ft 13 kts 315°
2026-04-22 22:49 -9.43126 147.21353 137 ft 9 kts 246°
2026-04-22 22:49 -9.43154 147.21297 137 ft 8 kts 242°
2026-04-22 22:49 -9.43190 147.21243 137 ft 10 kts 234°
2026-04-22 22:50 -9.43228 147.21185 136 ft 9 kts 239°
2026-04-22 22:50 -9.43261 147.21127 136 ft 9 kts 239°
2026-04-22 22:50 -9.43305 147.21088 136 ft 8 kts 199°
2026-04-22 22:50 -9.43358 147.21097 136 ft 7 kts 151°
2026-04-22 22:51 -9.43403 147.21123 136 ft 7 kts 147°
2026-04-22 22:51 -9.43461 147.21161 136 ft 11 kts 146°
2026-04-22 22:51 -9.43535 147.21207 136 ft 16 kts 148°
2026-04-22 22:51 -9.43634 147.21269 136 ft 11 kts 152°
2026-04-22 22:52 -9.43700 147.21263 136 ft 9 kts 224°
2026-04-22 22:52 -9.43731 147.21222 136 ft 6 kts 236°
2026-04-22 22:52 -9.43754 147.21185 136 ft 5 kts 240°
2026-04-22 22:52 -9.43772 147.21153 136 ft 2 kts 240°
2026-04-22 22:53 -9.43775 147.21149 136 ft 1 kts 240°